This demonstration page uses our WeatherBlox Daily Observations layout. Learn more.

Left ArrowRight Arrow

Hourly Observations for November 26, 2015

Temp ( °F °C ) Dew Point ( °F °C ) Humidity (%) Winds ( mph kmh ) Pressure ( in mb ) Visibility ( mi km ) Precip ( " mm )
12:53 am 00:53 Clear 48 8.9 34 1.1 58 58 ENE 6 9 30.57 1035 10 16 0.00 0.00
1:53 am 01:53 Clear 48 8.9 34 1.1 58 58 NE 9 15 30.57 1035 10 16 0.00 0.00
2:53 am 02:53 Clear 46 7.8 34 1.1 63 63 NNE 6 9 30.57 1035 10 16 0.00 0.00
3:53 am 03:53 Clear 44 6.7 34 1.1 68 68 NE 7 11 30.58 1036 10 16 0.00 0.00
4:53 am 04:53 Clear 46 7.8 34 1.1 63 63 NE 8 13 30.57 1035 10 16 0.00 0.00
5:53 am 05:53 Clear 46 7.8 34 1.1 63 63 NE 8 13 30.58 1036 10 16 0.00 0.00
6:53 am 06:53 Clear 46 7.8 35 1.7 66 66 NE 7 11 30.60 1036 10 16 0.00 0.00
7:53 am 07:53 Sunny 47 8.3 36 2.2 66 66 ENE 8 13 30.61 1037 10 16 0.00 0.00
8:53 am 08:53 Sunny 51 10.6 38 3.3 61 61 ENE 10 17 30.63 1037 10 16 0.00 0.00
9:53 am 09:53 Sunny 55 12.8 40 4.4 57 57 E 10 17 30.63 1037 10 16 0.00 0.00
10:53 am 10:53 Sunny 60 15.6 42 5.6 52 52 E 9 15 30.62 1037 10 16 0.00 0.00
11:53 am 11:53 Sunny 63 17 43 6 49 49 E 6 9 30.62 1037 10 16 0.00 0.00
12:53 pm 12:53 Sunny 66 18.9 46 7.8 49 49 E 9 15 30.57 1035 10 16 0.00 0.00
1:53 pm 13:53 Sunny 67 19.4 46 7.8 47 47 E 10 17 30.54 1034 10 16 0.00 0.00
2:53 pm 14:53 Sunny 68 20 47 8.3 47 47 E 8 13 30.52 1033 10 16 0.00 0.00
3:53 pm 15:53 Sunny 68 20 48 8.9 49 49 E 9 15 30.50 1033 10 16 0.00 0.00
4:53 pm 16:53 Sunny 67 19.4 48 8.9 51 51 E 9 15 30.50 1033 10 16 0.00 0.00
5:53 pm 17:53 Clear 64 17.8 49 9.4 58 58 E 5 7 30.50 1033 10 16 0.00 0.00
6:53 pm 18:53 Clear 61 16.1 49 9.4 65 65 E 5 7 30.52 1033 10 16 0.00 0.00
7:53 pm 19:53 Mostly Cloudy 59 15 49 9.4 69 69 NE 3 6 30.52 1034 10 16 0.00 0.00
8:53 pm 20:53 Clear 58 14.4 48 8.9 70 70 Calm 30.52 1034 10 16 0.00 0.00
9:53 pm 21:53 Cloudy 58 14.4 49 9.4 72 72 NE 3 6 30.52 1034 10 16 0.00 0.00
10:53 pm 22:53 Clear 59 15 49 9.4 69 69 ENE 6 9 30.51 1033 10 16 0.00 0.00
11:53 pm 23:53 Cloudy 58 14.4 49 9.4 72 72 ENE 6 9 30.51 1033 10 16 0.00 0.00

Powered by AerisWeather